Tracking 20623 objects as of 2-Apr-2020
HD Live streaming from Space Station
objects crossing your sky now

COSMOS 529

Track COSMOS 529 now!
10-day predictions
COSMOS 529 is classified as:


NORAD ID: 6264
Int'l Code: 1972-087B
Perigee: 1,408.8 km
Apogee: 1,474.7 km
Inclination: 74.0 °
Period: 114.5 minutes
Semi major axis: 7812 km
RCS: 0.695 m2 (medium)
Launch date: November 1, 1972
Source: Commonwealth of Independent States (former USSR) (CIS)
Launch site: PLESETSK MISSILE AND SPACE COMPLEX (PKMTR)
aabbcc
Your satellite tracking list
Your tracking list is empty




NASA's NSSDC Master Catalog

Two Line Element Set (TLE):
1  6264U 72087B   20092.93945868 -.00000021 +00000-0 -30108-4 0  9998
2  6264 074.0356 169.8656 0042179 351.4435 181.2096 12.57169791176294
Source of the keplerian elements: AFSPC